Weather History for Safford, AZ

Change the Weather History Date:

Wednesday, September 26, 2012

  Actual Average Record
Temperature  
Mean Temperature 76 °F -  
Max Temperature 91 °F 88 °F 100 °F (2005)
Min Temperature 61 °F 55 °F 40 °F (1959)
Cooling Degree Days 11    
Growing Degree Days 26 (Base 50)    
Moisture  
Dew Point 39 °F    
Average Humidity 27    
Maximum Humidity 44    
Minimum Humidity 13    
Precipitation  
Precipitation 0.00 in - - ()
Sea Level Pressure  
Sea Level Pressure 29.78 in    
Wind  
Wind Speed 5 mph (SSW)    
Max Wind Speed 15 mph    
Max Gust Speed 18 mph    
Visibility 10 miles    
Events      
Averages and records for this station are not official NWS values.
T = Trace of Precipitation, MM = Missing Value Source: NWS Daily Summary

Daily Weather History Graph

Daily Weather History Graph

Search for Another Location

Airport:

Trip Planner

Search our weather history database for the weather conditions in past years. The results will help you decide how hot, cold, wet, or windy it might be!

Date:

Astronomy

Sep. 26, 2012 Rise Set
Actual Time 6:09 AM MST 6:09 PM MST
Civil Twilight 5:45 AM MST 6:33 PM MST
Nautical Twilight 5:16 AM MST 7:02 PM MST
Astronomical Twilight 4:47 AM MST 7:31 PM MST
Moon 4:03 PM MST (9/26) 2:48 AM MST (9/26)
Length of Visible Light 12h 48m
Length of Day
11h 59m
Waxing Gibbous, 88% of the Moon is Illuminated
Sep 26
Waxing Gibbous
Sep 29
Full
Oct 8
Last Quarter
Oct 15
New
Oct 21
First Quarter

Hourly Weather History & Observations

Time (MST) Temp. Dew Point Humidity Pressure Visibility Wind Dir Wind Speed Gust Speed Precip Events Conditions
12:51 AM 69.1 °F 37.9 °F 32% 29.78 in 10.0 mi North 3.5 mph - N/A   Clear
1:51 AM 66.9 °F 39.0 °F 36% 29.77 in 10.0 mi Calm Calm - N/A   Overcast
2:51 AM 68.0 °F 39.0 °F 35% 29.77 in 10.0 mi SSE 6.9 mph - N/A   Mostly Cloudy
3:51 AM 64.0 °F 37.9 °F 38% 29.78 in 10.0 mi SE 4.6 mph - N/A   Mostly Cloudy
4:51 AM 64.9 °F 37.9 °F 37% 29.79 in 10.0 mi East 5.8 mph - N/A   Scattered Clouds
5:51 AM 64.0 °F 37.9 °F 38% 29.81 in 10.0 mi SE 4.6 mph - N/A   Partly Cloudy
6:51 AM 61.0 °F 39.0 °F 44% 29.83 in 10.0 mi Calm Calm - N/A   Clear
7:51 AM 73.0 °F 41.0 °F 31% 29.83 in 10.0 mi ESE 5.8 mph - N/A   Partly Cloudy
8:51 AM 79.0 °F 37.9 °F 23% 29.83 in 10.0 mi ESE 8.1 mph - N/A   Clear
9:51 AM 82.0 °F 39.0 °F 22% 29.84 in 10.0 mi ESE 5.8 mph - N/A   Clear
10:51 AM 84.9 °F 39.0 °F 20% 29.82 in 10.0 mi Variable 3.5 mph - N/A   Clear
11:51 AM 87.1 °F 39.9 °F 19% 29.80 in 10.0 mi Calm Calm - N/A   Clear
12:51 PM 90.0 °F 39.9 °F 17% 29.77 in 10.0 mi SW 9.2 mph 18.4 mph N/A   Clear
1:51 PM 91.0 °F 37.0 °F 15% 29.75 in 10.0 mi Variable 5.8 mph - N/A   Clear
2:51 PM 91.9 °F 35.1 °F 13% 29.73 in 10.0 mi East 5.8 mph - N/A   Clear
3:51 PM 91.9 °F 37.9 °F 15% 29.72 in 10.0 mi Variable 3.5 mph - N/A   Clear
4:51 PM 90.0 °F 39.9 °F 17% 29.71 in 10.0 mi SSW 8.1 mph - N/A   Clear
5:51 PM 86.0 °F 39.9 °F 20% 29.73 in 10.0 mi West 8.1 mph - N/A   Clear
6:51 PM 82.9 °F 39.9 °F 22% 29.76 in 10.0 mi NW 6.9 mph - N/A   Clear
7:51 PM 79.0 °F 42.1 °F 27% 29.77 in 10.0 mi West 8.1 mph - N/A   Mostly Cloudy
8:51 PM 79.0 °F 42.1 °F 27% 29.78 in 10.0 mi WNW 11.5 mph - N/A   Clear
9:51 PM 75.9 °F 43.0 °F 31% 29.80 in 10.0 mi NW 10.4 mph - N/A   Clear
10:51 PM 78.1 °F 42.1 °F 28% 29.80 in 10.0 mi NW 15.0 mph - N/A   Clear
11:51 PM 73.0 °F 41.0 °F 31% 29.81 in 10.0 mi WNW 9.2 mph - N/A   Clear